| time (UTC) | temp F | wind direction | speed knots | gust knots | rain 1hr in | rain 24hr in | rain mn in | humidity % | barometer mb |
| 20260505122109 | 54 | 322 | 0.0 | 1.7 | 0.00 | 0.00 | 0.00 | 92 | 1015.0 |
| 20260505121605 | 54 | 66 | 0.0 | 0.9 | 0.00 | 0.00 | 0.00 | 92 | 1015.0 |
| 20260505121102 | 54 | 304 | 0.0 | 0.9 | 0.00 | 0.00 | 0.00 | 92 | 1015.0 |
| 20260505120558 | 54 | 289 | 0.0 | 0.0 | 0.00 | 0.00 | 0.00 | 92 | 1015.0 |
| 20260505120054 | 54 | 312 | 0.0 | 0.9 | 0.00 | 0.00 | 0.00 | 92 | 1015.0 |
| 20260505115548 | 54 | 329 | 0.0 | 0.0 | 0.00 | 0.00 | 0.00 | 92 | 1014.7 |
| 20260505115046 | 54 | 334 | 0.0 | 0.0 | 0.00 | 0.00 | 0.00 | 92 | 1014.7 |
| 20260505114543 | 54 | 281 | 0.0 | 0.9 | 0.00 | 0.00 | 0.00 | 92 | 1015.0 |
| 20260505114039 | 54 | 313 | 0.9 | 2.6 | 0.00 | 0.00 | 0.00 | 92 | 1014.7 |
| 20260505113535 | 54 | 47 | 0.0 | 0.0 | 0.00 | 0.00 | 0.00 | 93 | 1015.0 |
| 20260505113032 | 54 | 310 | 0.0 | 0.0 | 0.00 | 0.00 | 0.00 | 92 | 1015.0 |
| 20260505112528 | 54 | 332 | 0.0 | 0.0 | 0.00 | 0.00 | 0.00 | 92 | 1014.7 |
| 20260505112026 | 54 | 295 | 0.0 | 0.0 | 0.00 | 0.00 | 0.00 | 93 | 1014.7 |
| 20260505111520 | 54 | 339 | 0.0 | 0.0 | 0.00 | 0.00 | 0.00 | 92 | 1014.7 |
| 20260505111016 | 54 | 338 | 0.0 | 0.9 | 0.00 | 0.00 | 0.00 | 92 | 1015.0 |
| 20260505110513 | 54 | 305 | 0.0 | 0.9 | 0.00 | 0.00 | 0.00 | 93 | 1014.7 |
| 20260505101945 | 54 | 314 | 0.0 | 0.0 | 0.00 | 0.00 | 0.00 | 93 | 1014.3 |
| 20260505101444 | 54 | 282 | 0.0 | 0.0 | 0.00 | 0.00 | 0.00 | 93 | 1014.7 |
| 20260505100940 | 54 | 353 | 0.0 | 0.0 | 0.00 | 0.00 | 0.00 | 93 | 1014.0 |
| 20260505100437 | 54 | 334 | 0.0 | 0.0 | 0.00 | 0.00 | 0.00 | 93 | 1014.3 |
| 20260505095933 | 54 | 353 | 0.0 | 0.9 | 0.00 | 0.00 | 0.00 | 93 | 1014.3 |
| 20260505095430 | 54 | 284 | 0.9 | 0.9 | 0.00 | 0.00 | 0.00 | 93 | 1014.3 |
| 20260505094926 | 54 | 304 | 0.0 | 0.9 | 0.00 | 0.00 | 0.00 | 93 | 1014.3 |
| 20260505094423 | 54 | 265 | 0.0 | 0.9 | 0.00 | 0.00 | 0.00 | 93 | 1014.3 |
| 20260505093919 | 54 | 308 | 0.0 | 2.6 | 0.00 | 0.00 | 0.00 | 94 | 1014.3 |
| 20260505093416 | 54 | 304 | 0.0 | 0.9 | 0.00 | 0.00 | 0.00 | 94 | 1014.0 |
| 20260505092913 | 54 | 320 | 0.0 | 0.0 | 0.00 | 0.00 | 0.00 | 94 | 1014.3 |
| 20260505092411 | 54 | 294 | 0.0 | 0.9 | 0.00 | 0.00 | 0.00 | 95 | 1014.0 |
| 20260505091909 | 53 | 313 | 0.0 | 0.0 | 0.00 | 0.00 | 0.00 | 96 | 1014.0 |
| 20260505091406 | 53 | 316 | 0.0 | 0.0 | 0.00 | 0.00 | 0.00 | 96 | 1014.0 |
| 20260505090904 | 53 | 291 | 0.0 | 0.0 | 0.00 | 0.00 | 0.00 | 96 | 1014.0 |
| 20260505090402 | 53 | 338 | 0.0 | 0.0 | 0.00 | 0.00 | 0.00 | 96 | 1014.0 |
| 20260505085859 | 53 | 342 | 0.0 | 0.0 | 0.00 | 0.00 | 0.00 | 96 | 1014.0 |
| 20260505085357 | 53 | 309 | 0.0 | 0.0 | 0.00 | 0.00 | 0.00 | 96 | 1014.0 |
| 20260505084855 | 52 | 338 | 0.0 | 0.0 | 0.00 | 0.00 | 0.00 | 96 | 1014.0 |
| 20260505084353 | 52 | 339 | 0.0 | 0.0 | 0.00 | 0.00 | 0.00 | 96 | 1014.0 |
| 20260505083850 | 53 | 334 | 0.0 | 0.0 | 0.00 | 0.00 | 0.00 | 95 | 1014.0 |
| 20260505083348 | 53 | 338 | 0.0 | 0.0 | 0.00 | 0.00 | 0.00 | 95 | 1014.0 |
| 20260505082844 | 53 | 340 | 0.0 | 0.0 | 0.00 | 0.00 | 0.00 | 95 | 1014.0 |
| 20260505082340 | 53 | 344 | 0.0 | 0.0 | 0.00 | 0.00 | 0.00 | 95 | 1013.7 |
| 20260505081836 | 53 | 353 | 0.0 | 0.0 | 0.00 | 0.00 | 0.00 | 95 | 1014.0 |
| 20260505081333 | 53 | 43 | 0.0 | 0.9 | 0.00 | 0.00 | 0.00 | 95 | 1013.7 |
| 20260505080830 | 53 | 331 | 0.0 | 0.0 | 0.00 | 0.00 | 0.00 | 94 | 1014.0 |
| 20260505080326 | 53 | 316 | 0.0 | 0.0 | 0.00 | 0.00 | 0.00 | 94 | 1014.0 |
| 20260505075821 | 53 | 4 | 0.0 | 0.0 | 0.00 | 0.00 | 0.00 | 94 | 1013.7 |
| 20260505075319 | 53 | 344 | 0.0 | 0.0 | 0.00 | 0.00 | 0.00 | 94 | 1013.7 |
| 20260505074816 | 53 | 315 | 0.0 | 0.0 | 0.00 | 0.00 | 0.00 | 94 | 1013.7 |
| 20260505074313 | 53 | 304 | 0.0 | 0.0 | 0.00 | 0.00 | 0.00 | 94 | 1013.7 |
| 20260505073810 | 53 | 310 | 0.0 | 0.0 | 0.00 | 0.00 | 0.00 | 94 | 1013.7 |
| 20260505073308 | 53 | 298 | 0.0 | 0.0 | 0.00 | 0.00 | 0.00 | 94 | 1013.7 |
| 20260505072805 | 53 | 337 | 0.0 | 0.0 | 0.00 | 0.00 | 0.00 | 94 | 1013.3 |
| 20260505072301 | 53 | 340 | 0.0 | 0.0 | 0.00 | 0.00 | 0.00 | 94 | 1013.7 |
| 20260505071757 | 53 | 326 | 0.0 | 0.0 | 0.00 | 0.00 | 0.00 | 94 | 1013.3 |
| 20260505071253 | 54 | 334 | 0.0 | 0.0 | 0.00 | 0.00 | 0.00 | 93 | 1013.3 |
| 20260505070751 | 54 | 331 | 0.0 | 0.0 | 0.00 | 0.00 | 0.00 | 93 | 1013.3 |
| 20260505070248 | 54 | 336 | 0.0 | 0.0 | 0.00 | 0.00 | 0.00 | 93 | 1013.3 |
| 20260505065743 | 54 | 338 | 0.0 | 0.0 | 0.00 | 0.00 | 0.00 | 92 | 1013.0 |
| 20260505065240 | 54 | 323 | 0.0 | 0.0 | 0.00 | 0.00 | 0.00 | 92 | 1013.0 |
| 20260505064737 | 54 | 320 | 0.0 | 0.0 | 0.00 | 0.00 | 0.00 | 91 | 1013.0 |
| 20260505064235 | 55 | 311 | 0.0 | 0.0 | 0.00 | 0.00 | 0.00 | 91 | 1013.0 |
| 20260505063732 | 55 | 294 | 0.0 | 0.9 | 0.00 | 0.00 | 0.00 | 91 | 1013.0 |
| 20260505063228 | 55 | 292 | 0.0 | 0.9 | 0.00 | 0.00 | 0.00 | 90 | 1013.0 |
| 20260505062725 | 55 | 275 | 0.0 | 0.9 | 0.00 | 0.00 | 0.00 | 90 | 1013.0 |
| 20260505062223 | 55 | 301 | 0.0 | 0.9 | 0.00 | 0.00 | 0.00 | 90 | 1013.0 |
| 20260505061719 | 55 | 306 | 0.0 | 1.7 | 0.00 | 0.00 | 0.00 | 90 | 1013.0 |
| 20260505061217 | 55 | 312 | 0.0 | 0.9 | 0.00 | 0.00 | 0.00 | 89 | 1013.0 |
| 20260505060714 | 55 | 286 | 1.7 | 2.6 | 0.00 | 0.00 | 0.00 | 89 | 1013.0 |
| 20260505060211 | 56 | 296 | 0.0 | 0.0 | 0.00 | 0.00 | 0.00 | 89 | 1013.0 |
| 20260505055707 | 56 | 276 | 0.0 | 0.9 | 0.00 | 0.00 | 0.00 | 89 | 1012.7 |
| 20260505055203 | 56 | 135 | 0.9 | 1.7 | 0.00 | 0.00 | 0.00 | 88 | 1013.0 |
| 20260505054700 | 56 | 305 | 0.0 | 0.9 | 0.00 | 0.00 | 0.00 | 88 | 1012.7 |
| 20260505054158 | 56 | 309 | 0.0 | 1.7 | 0.00 | 0.00 | 0.00 | 87 | 1012.7 |
| 20260505053656 | 57 | 277 | 0.9 | 1.7 | 0.00 | 0.00 | 0.00 | 87 | 1012.7 |
| 20260505053152 | 57 | 292 | 0.0 | 0.9 | 0.00 | 0.00 | 0.00 | 86 | 1012.7 |
| 20260505052649 | 57 | 265 | 0.0 | 2.6 | 0.00 | 0.00 | 0.00 | 85 | 1012.7 |
| 20260505052147 | 58 | 283 | 0.0 | 0.9 | 0.00 | 0.00 | 0.00 | 85 | 1012.7 |
| 20260505051643 | 58 | 286 | 0.9 | 0.9 | 0.00 | 0.00 | 0.00 | 85 | 1012.7 |
| 20260505051142 | 58 | 281 | 0.0 | 0.9 | 0.00 | 0.00 | 0.00 | 85 | 1012.7 |
| 20260505050639 | 58 | 308 | 0.0 | 0.0 | 0.00 | 0.00 | 0.00 | 84 | 1012.7 |
| 20260505050137 | 59 | 275 | 0.0 | 0.9 | 0.00 | 0.00 | 0.00 | 83 | 1012.3 |
| 20260505041607 | 62 | 297 | 0.0 | 1.7 | 0.00 | 0.00 | 0.00 | 77 | 1012.0 |
| 20260505041104 | 62 | 209 | 0.9 | 1.7 | 0.00 | 0.00 | 0.00 | 76 | 1011.6 |
| 20260505040601 | 63 | 300 | 0.0 | 0.9 | 0.00 | 0.00 | 0.00 | 75 | 1011.6 |
| 20260505040058 | 63 | 300 | 0.9 | 2.6 | 0.00 | 0.00 | 0.00 | 75 | 1011.6 |
| 20260505035555 | 63 | 292 | 0.0 | 1.7 | 0.00 | 0.00 | 0.00 | 74 | 1011.6 |
| 20260505035051 | 64 | 316 | 0.0 | 1.7 | 0.00 | 0.00 | 0.00 | 74 | 1011.3 |
| 20260505034548 | 64 | 233 | 0.9 | 1.7 | 0.00 | 0.00 | 0.00 | 72 | 1011.3 |
| 20260505034044 | 64 | 298 | 0.0 | 1.7 | 0.00 | 0.00 | 0.00 | 72 | 1011.3 |
| 20260505033542 | 65 | 276 | 0.9 | 0.9 | 0.00 | 0.00 | 0.00 | 72 | 1011.3 |
| 20260505033040 | 65 | 264 | 0.9 | 2.6 | 0.00 | 0.00 | 0.00 | 71 | 1011.3 |
| 20260505032538 | 66 | 294 | 0.0 | 0.9 | 0.00 | 0.00 | 0.00 | 70 | 1011.0 |
| 20260505032034 | 66 | 309 | 0.0 | 1.7 | 0.00 | 0.00 | 0.00 | 69 | 1011.0 |
| 20260505031531 | 67 | 296 | 0.9 | 1.7 | 0.00 | 0.00 | 0.00 | 68 | 1011.0 |
| 20260505031027 | 68 | 264 | 0.9 | 2.6 | 0.00 | 0.00 | 0.00 | 67 | 1010.6 |
| 20260505030524 | 68 | 296 | 0.0 | 1.7 | 0.00 | 0.00 | 0.00 | 65 | 1011.0 |
| 20260505030020 | 68 | 269 | 0.9 | 2.6 | 0.00 | 0.00 | 0.00 | 65 | 1011.0 |
| 20260505025516 | 69 | 304 | 0.9 | 3.5 | 0.00 | 0.00 | 0.00 | 63 | 1010.6 |
| 20260505025016 | 70 | 280 | 0.9 | 2.6 | 0.00 | 0.00 | 0.00 | 62 | 1010.6 |
| 20260505024512 | 70 | 282 | 0.9 | 1.7 | 0.00 | 0.00 | 0.00 | 61 | 1010.6 |
| 20260505024009 | 71 | 280 | 0.9 | 1.7 | 0.00 | 0.00 | 0.00 | 59 | 1010.6 |
| 20260505023506 | 72 | 294 | 1.7 | 1.7 | 0.00 | 0.00 | 0.00 | 57 | 1010.6 |
| 20260505023004 | 73 | 289 | 0.0 | 2.6 | 0.00 | 0.00 | 0.00 | 56 | 1010.6 |
| 20260505022501 | 74 | 323 | 0.9 | 0.9 | 0.00 | 0.00 | 0.00 | 56 | 1010.6 |
| 20260505021958 | 75 | 274 | 0.0 | 1.7 | 0.00 | 0.00 | 0.00 | 56 | 1010.6 |
| 20260505021454 | 75 | 255 | 0.9 | 2.6 | 0.00 | 0.00 | 0.00 | 56 | 1010.6 |
| 20260505020950 | 76 | 251 | 0.9 | 1.7 | 0.00 | 0.00 | 0.00 | 56 | 1010.6 |
| 20260505020445 | 76 | 276 | 0.9 | 1.7 | 0.00 | 0.00 | 0.00 | 55 | 1010.6 |
| 20260505015943 | 77 | 314 | 0.9 | 1.7 | 0.00 | 0.00 | 0.00 | 54 | 1010.6 |
| 20260505015440 | 78 | 305 | 0.0 | 0.9 | 0.00 | 0.00 | 0.00 | 53 | 1010.6 |
| 20260505014937 | 77 | 282 | 0.9 | 0.9 | 0.00 | 0.00 | 0.00 | 53 | 1010.6 |
| 20260505014434 | 78 | 261 | 0.9 | 1.7 | 0.00 | 0.00 | 0.00 | 53 | 1010.6 |
| 20260505013931 | 78 | 301 | 0.0 | 2.6 | 0.00 | 0.00 | 0.00 | 54 | 1010.6 |
| 20260505013428 | 78 | 258 | 1.7 | 1.7 | 0.00 | 0.00 | 0.00 | 50 | 1010.6 |
| 20260505012925 | 78 | 321 | 0.0 | 1.7 | 0.00 | 0.00 | 0.00 | 50 | 1010.6 |
| 20260505012423 | 79 | 273 | 0.9 | 1.7 | 0.00 | 0.00 | 0.00 | 49 | 1010.6 |
| 20260505011919 | 78 | 252 | 0.9 | 2.6 | 0.00 | 0.00 | 0.00 | 49 | 1010.6 |
| 20260505011416 | 79 | 306 | 0.0 | 0.9 | 0.00 | 0.00 | 0.00 | 48 | 1010.6 |
| 20260505010913 | 78 | 199 | 0.9 | 1.7 | 0.00 | 0.00 | 0.00 | 49 | 1010.6 |
| 20260505010409 | 79 | 284 | 0.9 | 1.7 | 0.00 | 0.00 | 0.00 | 49 | 1010.6 |
| 20260505005904 | 80 | 259 | 0.9 | 1.7 | 0.00 | 0.00 | 0.00 | 48 | 1010.6 |
| 20260505005402 | 80 | 291 | 1.7 | 1.7 | 0.00 | 0.00 | 0.00 | 47 | 1010.6 |
| 20260505004859 | 81 | 257 | 0.9 | 1.7 | 0.00 | 0.00 | 0.00 | 44 | 1010.6 |
| 20260505004355 | 80 | 270 | 0.0 | 1.7 | 0.00 | 0.00 | 0.00 | 44 | 1011.0 |
| 20260505003853 | 81 | 282 | 0.9 | 1.7 | 0.00 | 0.00 | 0.00 | 44 | 1011.0 |
| 20260505003350 | 81 | 328 | 0.0 | 0.9 | 0.00 | 0.00 | 0.00 | 44 | 1010.6 |
| 20260505002845 | 80 | 289 | 1.7 | 1.7 | 0.00 | 0.00 | 0.00 | 41 | 1010.6 |
| 20260505002342 | 80 | 354 | 0.9 | 1.7 | 0.00 | 0.00 | 0.00 | 45 | 1011.0 |
| 20260505001841 | 80 | 294 | 0.0 | 1.7 | 0.00 | 0.00 | 0.00 | 43 | 1010.6 |
| 20260505001338 | 81 | 48 | 0.0 | 1.7 | 0.00 | 0.00 | 0.00 | 43 | 1010.6 |
| 20260505000835 | 81 | 293 | 0.9 | 1.7 | 0.00 | 0.00 | 0.00 | 41 | 1011.0 |
| 20260505000333 | 81 | 338 | 0.0 | 3.5 | 0.00 | 0.00 | 0.00 | 41 | 1011.0 |
| 20260504235829 | 81 | 246 | 0.9 | 1.7 | 0.00 | 0.00 | 0.00 | 41 | 1011.0 |
| 20260504235326 | 80 | 268 | 0.9 | 2.6 | 0.00 | 0.00 | 0.00 | 40 | 1010.6 |
| 20260504234823 | 81 | 258 | 0.9 | 1.7 | 0.00 | 0.00 | 0.00 | 39 | 1011.0 |
| 20260504234321 | 81 | 195 | 1.7 | 3.5 | 0.00 | 0.00 | 0.00 | 35 | 1010.6 |
| 20260504233817 | 82 | 299 | 0.0 | 0.9 | 0.00 | 0.00 | 0.00 | 36 | 1011.0 |
| 20260504233313 | 81 | 270 | 0.9 | 1.7 | 0.00 | 0.00 | 0.00 | 37 | 1010.6 |
| 20260504232809 | 82 | 38 | 0.0 | 0.9 | 0.00 | 0.00 | 0.00 | 40 | 1010.6 |
| 20260504232307 | 80 | 261 | 1.7 | 1.7 | 0.00 | 0.00 | 0.00 | 39 | 1011.0 |
| 20260504231804 | 80 | 310 | 0.9 | 2.6 | 0.00 | 0.00 | 0.00 | 37 | 1011.0 |
| 20260504231300 | 81 | 294 | 0.9 | 2.6 | 0.00 | 0.00 | 0.00 | 37 | 1011.0 |
| 20260504230756 | 80 | 265 | 1.7 | 2.6 | 0.00 | 0.00 | 0.00 | 35 | 1011.0 |
| 20260504230254 | 82 | 296 | 0.0 | 1.7 | 0.00 | 0.00 | 0.00 | 35 | 1011.0 |
| 20260504225753 | 80 | 342 | 0.0 | 1.7 | 0.00 | 0.00 | 0.00 | 38 | 1011.0 |
| 20260504225249 | 80 | 293 | 0.9 | 1.7 | 0.00 | 0.00 | 0.00 | 38 | 1011.0 |
| 20260504224746 | 80 | 302 | 0.9 | 2.6 | 0.00 | 0.00 | 0.00 | 35 | 1011.0 |
| 20260504224243 | 81 | 321 | 0.0 | 1.7 | 0.00 | 0.00 | 0.00 | 37 | 1011.3 |
| 20260504223739 | 80 | 271 | 1.7 | 2.6 | 0.00 | 0.00 | 0.00 | 38 | 1011.3 |
| 20260504223235 | 80 | 318 | 0.0 | 1.7 | 0.00 | 0.00 | 0.00 | 38 | 1011.3 |
| 20260504222732 | 80 | 314 | 0.0 | 1.7 | 0.00 | 0.00 | 0.00 | 36 | 1011.3 |
| 20260504222229 | 80 | 271 | 1.7 | 2.6 | 0.00 | 0.00 | 0.00 | 37 | 1011.0 |
| 20260504221727 | 80 | 272 | 1.7 | 1.7 | 0.00 | 0.00 | 0.00 | 38 | 1011.3 |
| 20260504221223 | 80 | 308 | 0.9 | 1.7 | 0.00 | 0.00 | 0.00 | 37 | 1011.6 |
| 20260504220720 | 80 | 259 | 0.9 | 1.7 | 0.00 | 0.00 | 0.00 | 37 | 1011.3 |
| 20260504220218 | 80 | 311 | 0.9 | 1.7 | 0.00 | 0.00 | 0.00 | 40 | 1011.6 |
| 20260504215714 | 79 | 84 | 0.9 | 1.7 | 0.00 | 0.00 | 0.00 | 37 | 1011.6 |
| 20260504215211 | 78 | 284 | 0.9 | 2.6 | 0.00 | 0.00 | 0.00 | 39 | 1011.6 |
| 20260504214707 | 78 | 302 | 0.9 | 1.7 | 0.00 | 0.00 | 0.00 | 40 | 1011.3 |
| 20260504214204 | 78 | 296 | 1.7 | 3.5 | 0.00 | 0.00 | 0.00 | 38 | 1011.6 |
| 20260504213700 | 79 | 359 | 0.0 | 1.7 | 0.00 | 0.00 | 0.00 | 43 | 1011.6 |
| 20260504213157 | 79 | 290 | 0.9 | 1.7 | 0.00 | 0.00 | 0.00 | 43 | 1011.6 |
| 20260504212654 | 78 | 199 | 0.9 | 1.7 | 0.00 | 0.00 | 0.00 | 41 | 1011.3 |
| 20260504212150 | 78 | 268 | 0.9 | 1.7 | 0.00 | 0.00 | 0.00 | 44 | 1011.6 |
| 20260504211648 | 78 | 274 | 0.9 | 2.6 | 0.00 | 0.00 | 0.00 | 41 | 1011.6 |
| 20260504211144 | 78 | 257 | 0.9 | 1.7 | 0.00 | 0.00 | 0.00 | 45 | 1011.6 |
| 20260504210642 | 77 | 218 | 1.7 | 1.7 | 0.00 | 0.00 | 0.00 | 44 | 1011.6 |
| 20260504210138 | 77 | 321 | 0.0 | 2.6 | 0.00 | 0.00 | 0.00 | 45 | 1011.6 |
| 20260504205636 | 76 | 304 | 0.9 | 1.7 | 0.00 | 0.00 | 0.00 | 44 | 1011.6 |
| 20260504205133 | 76 | 310 | 0.0 | 2.6 | 0.00 | 0.00 | 0.00 | 43 | 1011.6 |
| 20260504204631 | 76 | 292 | 0.9 | 2.6 | 0.00 | 0.00 | 0.00 | 44 | 1011.6 |
| 20260504204130 | 76 | 265 | 1.7 | 1.7 | 0.00 | 0.00 | 0.00 | 44 | 1011.6 |
| 20260504203628 | 75 | 253 | 0.9 | 1.7 | 0.00 | 0.00 | 0.00 | 51 | 1012.0 |
| 20260504203126 | 76 | 200 | 1.7 | 1.7 | 0.00 | 0.00 | 0.00 | 46 | 1011.6 |
| 20260504202626 | 74 | 244 | 1.7 | 2.6 | 0.00 | 0.00 | 0.00 | 47 | 1011.6 |
| 20260504202123 | 76 | 305 | 0.0 | 2.6 | 0.00 | 0.00 | 0.00 | 48 | 1011.6 |
| 20260504201619 | 76 | 288 | 0.9 | 1.7 | 0.00 | 0.00 | 0.00 | 49 | 1011.6 |
| 20260504201117 | 75 | 234 | 0.9 | 1.7 | 0.00 | 0.00 | 0.00 | 50 | 1011.6 |
| 20260504200614 | 75 | 292 | 1.7 | 2.6 | 0.00 | 0.00 | 0.00 | 49 | 1011.6 |
| 20260504200111 | 75 | 301 | 0.0 | 1.7 | 0.00 | 0.00 | 0.00 | 51 | 1011.6 |
| 20260504195607 | 75 | 168 | 1.7 | 1.7 | 0.00 | 0.00 | 0.00 | 49 | 1012.0 |
| 20260504195103 | 75 | 283 | 0.0 | 1.7 | 0.00 | 0.00 | 0.00 | 52 | 1012.0 |
| 20260504194600 | 74 | 333 | 0.0 | 0.9 | 0.00 | 0.00 | 0.00 | 52 | 1012.0 |
| 20260504194055 | 73 | 276 | 1.7 | 2.6 | 0.00 | 0.00 | 0.00 | 53 | 1012.0 |
| 20260504193552 | 74 | 229 | 1.7 | 2.6 | 0.00 | 0.00 | 0.00 | 51 | 1012.0 |
| 20260504193051 | 73 | 240 | 0.0 | 1.7 | 0.00 | 0.00 | 0.00 | 53 | 1012.0 |
| 20260504192549 | 73 | 320 | 0.0 | 2.6 | 0.00 | 0.00 | 0.00 | 54 | 1012.0 |
| 20260504192046 | 74 | 285 | 0.9 | 2.6 | 0.00 | 0.00 | 0.00 | 52 | 1012.0 |
| 20260504191544 | 74 | 315 | 0.0 | 1.7 | 0.00 | 0.00 | 0.00 | 54 | 1012.3 |
| 20260504191040 | 74 | 266 | 0.9 | 0.9 | 0.00 | 0.00 | 0.00 | 54 | 1012.0 |
| 20260504190537 | 73 | 266 | 0.9 | 1.7 | 0.00 | 0.00 | 0.00 | 55 | 1012.0 |
| 20260504190033 | 73 | 274 | 0.9 | 1.7 | 0.00 | 0.00 | 0.00 | 56 | 1012.0 |
| 20260504185530 | 72 | 289 | 0.9 | 1.7 | 0.00 | 0.00 | 0.00 | 55 | 1012.0 |
| 20260504185026 | 73 | 323 | 0.0 | 1.7 | 0.00 | 0.00 | 0.00 | 55 | 1012.0 |
| 20260504184522 | 72 | 304 | 0.9 | 1.7 | 0.00 | 0.00 | 0.00 | 55 | 1012.3 |
| 20260504184017 | 73 | 254 | 1.7 | 1.7 | 0.00 | 0.00 | 0.00 | 54 | 1012.0 |
| 20260504183515 | 72 | 303 | 0.9 | 2.6 | 0.00 | 0.00 | 0.00 | 55 | 1012.0 |
| 20260504183013 | 71 | 239 | 0.9 | 2.6 | 0.00 | 0.00 | 0.00 | 51 | 1012.0 |
| 20260504182509 | 72 | 183 | 0.9 | 1.7 | 0.00 | 0.00 | 0.00 | 54 | 1012.3 |
| 20260504182007 | 72 | 279 | 0.0 | 1.7 | 0.00 | 0.00 | 0.00 | 55 | 1012.3 |
| 20260504181504 | 73 | 253 | 0.0 | 1.7 | 0.00 | 0.00 | 0.00 | 51 | 1012.3 |
| 20260504181003 | 72 | 299 | 0.0 | 0.9 | 0.00 | 0.00 | 0.00 | 54 | 1012.3 |
| 20260504180501 | 72 | 252 | 0.9 | 1.7 | 0.00 | 0.00 | 0.00 | 53 | 1012.3 |
| 20260504175959 | 71 | 267 | 1.7 | 2.6 | 0.00 | 0.00 | 0.00 | 57 | 1012.3 |
| 20260504175456 | 72 | 15 | 0.0 | 1.7 | 0.00 | 0.00 | 0.00 | 52 | 1012.3 |
| 20260504174953 | 72 | 267 | 0.0 | 1.7 | 0.00 | 0.00 | 0.00 | 52 | 1012.3 |
| 20260504174450 | 71 | 306 | 0.0 | 1.7 | 0.00 | 0.00 | 0.00 | 54 | 1012.3 |
| 20260504173947 | 72 | 1 | 0.0 | 2.6 | 0.00 | 0.00 | 0.00 | 57 | 1012.3 |
| 20260504173444 | 71 | 300 | 0.0 | 0.9 | 0.00 | 0.00 | 0.00 | 58 | 1012.0 |
| 20260504172942 | 71 | 302 | 0.0 | 1.7 | 0.00 | 0.00 | 0.00 | 56 | 1012.0 |
| 20260504172437 | 71 | 339 | 0.0 | 1.7 | 0.00 | 0.00 | 0.00 | 57 | 1012.0 |
| 20260504171934 | 71 | 342 | 0.0 | 0.9 | 0.00 | 0.00 | 0.00 | 60 | 1012.0 |
| 20260504171431 | 71 | 304 | 0.0 | 0.9 | 0.00 | 0.00 | 0.00 | 58 | 1012.0 |
| 20260504170928 | 71 | 323 | 0.9 | 1.7 | 0.00 | 0.00 | 0.00 | 56 | 1012.0 |
| 20260504170424 | 70 | 242 | 0.9 | 0.9 | 0.00 | 0.00 | 0.00 | 59 | 1012.0 |
| 20260504160343 | 66 | 294 | 0.9 | 1.7 | 0.00 | 0.00 | 0.00 | 65 | 1011.6 |
| 20260504150808 | 66 | 325 | 0.0 | 0.9 | 0.00 | 0.00 | 0.00 | 60 | 1011.3 |
| 20260504150305 | 64 | 316 | 0.0 | 1.7 | 0.00 | 0.00 | 0.00 | 61 | 1011.3 |
| 20260504141235 | 57 | 23 | 0.0 | 0.0 | 0.00 | 0.00 | 0.00 | 82 | 1011.0 |
| 20260504140731 | 55 | 9 | 0.0 | 0.0 | 0.00 | 0.00 | 0.00 | 83 | 1011.0 |
| 20260504140227 | 55 | 12 | 0.0 | 0.0 | 0.00 | 0.00 | 0.00 | 83 | 1011.3 |
| 20260504130655 | 52 | 29 | 0.0 | 0.0 | 0.00 | 0.00 | 0.00 | 88 | 1010.3 |
| 20260504130151 | 51 | 6 | 0.0 | 0.0 | 0.00 | 0.00 | 0.00 | 90 | 1010.3 |